Theta_e
335 340 348 349 348 348 348 347 345 344 344 343 344 344 342 341 342 344 343 341 342 341 338 338 339 338 337 337 336 335 334 334 336 336 336 335 336 337 338 338 337 333 338
338 343 346 349 348 348 347 346 344 344 343 340 340 343 341 340 340 339 341 340 339 340 337 338 338 338 339 338 337 336 335 334 332 335 336 336 334 334 335 335 337 335 338
340 343 346 348 348 347 347 345 344 343 342 342 342 344 342 340 340 338 338 338 336 337 337 337 337 338 337 336 337 336 335 333 334 332 333 327 328 333 333 336 336 336 335
340 342 345 345 348 347 346 344 344 343 342 341 340 344 341 339 339 337 337 337 337 337 337 337 337 337 336 337 337 335 334 333 334 332 328 328 328 335 335 336 336 335 336
338 342 343 345 347 347 345 344 343 342 342 341 341 342 341 339 337 337 335 336 336 336 336 336 336 336 336 336 336 334 333 331 331 327 325 328 328 334 336 335 335 334 335
337 340 342 345 347 346 344 343 342 342 341 339 340 342 342 340 337 337 335 336 336 335 335 335 335 336 335 336 335 333 331 331 326 320 323 327 327 335 335 335 335 334 335
334 338 342 344 345 345 344 343 342 341 340 340 338 343 342 340 337 337 336 335 335 334 334 334 334 334 333 334 333 332 331 328 320 319 323 325 328 332 335 335 335 334 334
335 337 340 337 340 342 343 342 342 341 340 339 338 340 343 340 338 336 335 334 334 334 334 334 333 332 331 331 331 330 328 327 322 320 321 323 334 333 332 334 334 334 334
335 336 337 338 338 335 338 338 339 340 339 338 336 336 337 339 338 337 336 335 334 333 333 333 332 331 330 329 328 327 326 325 319 320 323 322 333 332 331 333 333 333 332
332 334 334 335 336 336 335 332 334 335 335 335 334 331 330 332 333 333 332 334 334 333 333 332 331 330 328 326 326 325 324 323 319 319 319 322 331 331 330 330 331 331 331
330 331 332 333 333 334 334 330 329 330 331 330 329 326 325 326 327 327 327 332 335 333 332 331 331 330 329 326 325 324 321 316 318 317 316 324 329 329 329 329 329 331 330
325 327 330 330 331 332 335 330 329 329 327 326 325 324 324 324 324 326 324 328 332 331 332 331 331 330 324 316 315 319 315 315 314 315 315 323 327 327 329 329 330 331 330
325 327 329 329 330 332 333 329 327 326 325 324 323 322 322 322 320 322 321 323 321 321 323 326 324 320 317 316 317 317 317 316 314 315 317 323 327 326 326 330 329 330 330
320 325 328 329 329 331 332 331 329 328 325 323 322 322 320 317 317 318 319 319 318 318 316 316 315 316 316 317 317 317 316 316 315 316 316 319 325 327 327 327 330 330 331
320 320 325 328 329 331 331 332 331 328 327 326 323 322 321 318 316 317 317 317 317 316 315 314 314 314 315 316 316 316 316 315 315 315 315 315 320 326 328 328 328 331 331
323 320 320 327 329 331 330 331 331 329 328 326 325 324 322 321 318 317 317 316 315 315 315 314 315 314 315 315 315 315 315 314 314 314 314 314 319 323 327 328 329 329 331
324 324 320 321 327 329 330 328 328 328 328 326 326 325 324 323 320 318 318 316 316 315 315 314 313 313 313 313 312 313 313 314 313 313 313 313 314 318 322 327 328 329 330
324 324 324 323 323 327 328 327 327 326 326 325 325 326 325 324 322 320 320 318 318 316 315 314 313 312 311 311 311 311 311 312 312 313 313 314 314 315 318 323 327 329 329
324 324 324 322 320 323 325 327 326 324 325 325 324 325 325 325 324 323 321 321 318 316 314 315 313 311 310 310 311 312 311 311 311 313 312 313 314 315 315 318 320 322 327
324 325 324 323 322 320 323 324 324 323 323 324 324 324 325 325 325 323 323 321 319 316 315 313 313 311 311 311 313 313 312 312 312 311 312 314 314 315 315 315 314 315 318
321 323 322 320 321 320 319 319 321 321 322 320 321 323 323 324 324 324 323 319 318 318 318 316 315 312 311 310 310 310 311 313 313 314 313 312 314 315 314 314 314 314 315
318 322 323 319 320 319 320 319 320 321 322 323 321 320 322 323 323 323 323 321 319 318 317 316 314 311 312 311 310 306 306 308 309 312 311 313 313 314 314 314 313 313 313
312 318 322 321 319 319 320 319 315 315 314 316 319 319 319 321 322 323 323 322 320 320 319 316 315 313 313 309 312 309 303 302 305 310 310 311 313 312 313 313 313 313 314
306 314 320 323 320 319 319 318 316 316 315 317 318 319 320 319 320 322 322 322 322 320 319 318 316 316 315 311 309 314 311 307 306 305 310 311 311 311 312 311 312 314 315
304 308 316 320 322 320 318 319 317 316 318 319 318 317 318 319 319 319 320 321 320 321 320 319 317 315 315 314 312 309 312 313 310 307 306 309 309 310 311 311 315 315 312
302 303 310 315 320 322 319 318 319 318 318 318 318 316 317 318 319 319 319 319 320 320 319 319 318 317 316 316 316 314 312 309 311 310 310 308 307 310 311 312 313 311 308
Wind_Speed
5 6 8 10 12 12 15 14 12 11 12 13 14 15 15 14 14 14 15 14 15 15 17 17 17 17 18 18 18 18 17 16 17 16 15 16 16 16 16 16 13 8 15
8 7 11 10 14 14 15 12 11 9 11 12 12 14 14 14 14 15 13 13 15 15 15 15 16 16 15 14 16 16 16 15 15 13 12 13 14 14 14 14 15 12 15
6 7 9 13 13 13 13 13 11 10 11 10 10 15 13 14 14 14 13 13 14 14 13 15 15 15 13 11 11 15 14 13 12 12 10 4 7 12 13 14 14 14 14
8 5 7 14 15 14 11 11 11 9 10 10 9 13 14 12 13 13 13 13 13 14 14 14 14 13 11 12 13 15 12 10 8 10 6 6 6 12 12 13 12 12 13
7 7 6 12 16 15 12 10 11 9 10 9 9 10 13 13 11 12 12 12 12 12 13 13 12 12 11 11 13 10 9 10 10 8 6 5 4 7 9 10 9 10 10
6 6 10 11 13 15 14 11 9 11 10 7 4 13 11 14 12 11 10 10 10 11 11 11 11 10 11 12 10 9 7 10 8 6 6 7 6 10 11 9 9 9 8
6 6 7 11 11 12 13 13 11 9 9 7 1 11 7 16 12 11 10 10 10 10 10 10 9 8 9 10 9 8 6 6 4 4 5 5 5 9 9 8 9 8 9
9 5 6 9 10 9 11 12 13 10 10 7 6 5 9 14 13 10 10 9 9 9 9 8 7 7 7 7 8 8 6 4 4 3 3 3 8 9 8 8 8 7 8
6 7 4 6 8 8 7 7 9 12 11 9 7 5 8 10 13 11 8 8 8 8 7 7 5 4 5 5 5 6 5 4 3 1 2 2 7 8 7 7 6 5 7
5 5 6 5 5 7 6 7 7 7 10 11 9 6 7 7 5 11 9 7 7 7 6 6 4 3 2 2 2 5 4 4 3 1 1 2 4 5 5 5 3 2 6
4 4 4 5 5 5 6 6 6 7 6 6 8 9 7 4 5 5 5 8 6 6 7 6 5 3 1 2 4 4 4 1 1 1 2 5 2 3 3 4 4 1 5
6 5 5 5 5 5 4 6 5 4 4 4 4 5 4 5 4 4 4 7 7 7 6 6 5 3 1 2 2 4 1 1 1 3 3 6 5 2 2 4 3 2 4
7 4 7 6 6 6 5 3 2 3 3 3 5 5 4 3 3 3 2 2 2 4 2 2 2 1 3 3 3 3 3 3 2 3 4 7 7 5 3 4 2 2 4
7 9 7 7 7 7 4 5 5 4 4 3 4 5 4 3 3 3 3 4 3 3 3 3 2 3 4 5 5 4 4 3 2 3 4 7 8 7 6 6 5 5 6
9 9 9 9 9 8 6 6 6 6 5 6 5 5 4 4 4 4 4 3 4 3 4 4 4 4 5 5 5 5 5 6 5 3 3 7 9 9 9 8 8 8 7
10 10 9 11 11 9 9 9 9 6 6 4 4 6 7 5 4 4 4 4 4 4 4 4 4 4 5 4 5 6 6 5 5 5 4 4 8 10 11 10 9 9 9
12 8 10 10 11 11 12 9 7 7 6 7 6 6 8 7 6 6 5 5 5 5 5 4 4 4 4 4 6 5 5 6 5 6 5 4 4 8 11 11 11 10 10
9 12 10 10 11 12 11 9 7 7 6 7 7 7 10 10 9 7 6 6 5 4 4 4 4 4 5 4 4 5 4 5 6 6 5 5 4 4 5 11 12 12 11
12 12 13 11 12 12 11 9 8 8 7 7 6 8 10 11 11 9 8 7 6 5 5 5 4 4 4 4 5 5 5 5 6 5 6 6 6 5 4 7 10 10 11
13 13 13 11 15 13 10 7 5 6 8 7 8 8 11 9 11 10 8 8 7 5 6 5 6 4 4 4 4 5 5 5 5 5 7 5 5 6 5 5 4 5 10
9 11 14 14 16 10 9 9 8 11 8 7 9 11 11 10 11 11 9 7 8 9 10 9 6 6 5 2 1 4 5 9 9 8 5 5 6 6 6 5 4 4 4
11 14 14 15 14 13 11 10 9 8 9 9 8 10 12 13 13 12 11 9 10 8 8 9 9 4 4 6 3 1 4 4 3 7 4 5 8 4 5 6 5 6 5
9 11 13 16 16 15 17 8 3 0 1 3 9 10 12 15 14 13 13 11 10 9 10 10 10 10 8 4 7 5 2 5 3 2 3 4 5 4 5 5 6 6 5
10 9 11 13 14 14 14 11 14 13 13 12 12 8 10 13 15 15 15 13 13 10 12 10 9 10 9 8 2 9 4 3 3 4 2 2 4 5 6 4 4 5 5
8 8 11 13 13 14 14 17 13 14 12 10 8 10 10 11 14 15 15 15 14 11 12 13 10 12 10 10 8 3 9 8 4 3 6 4 2 4 4 4 4 4 3
8 7 7 10 13 12 13 16 18 18 16 11 11 9 9 9 9 14 15 15 15 13 15 12 13 14 14 12 10 10 9 5 9 8 10 6 5 4 3 4 4 3 3
Wind_Direction
185 171 150 138 137 137 114 109 104 114 115 111 109 107 103 101 102 94 99 91 85 87 98 93 93 91 90 86 83 81 76 75 68 62 70 61 58 59 56 53 50 45 59
141 157 149 142 135 127 116 112 111 115 118 113 114 113 105 103 106 100 96 101 96 93 101 97 99 93 87 87 91 85 81 77 80 59 40 62 60 61 54 52 49 49 50
142 148 140 135 131 130 131 122 126 127 121 115 110 118 108 104 102 103 101 108 109 107 104 109 105 92 82 65 83 94 91 87 78 75 55 48 62 60 59 53 50 46 44
141 136 138 136 136 133 130 130 131 128 128 118 113 120 111 108 109 111 113 116 112 107 108 110 108 97 75 62 78 100 102 102 72 45 33 22 29 55 55 45 46 43 35
139 136 143 144 141 142 140 136 135 131 131 126 135 110 118 115 114 118 120 117 115 116 113 113 110 100 81 69 96 97 96 79 68 53 35 9 11 46 58 50 44 40 39
138 142 150 151 149 146 144 144 144 138 135 141 127 125 125 121 123 114 121 112 116 115 119 118 115 105 87 81 84 74 73 71 67 49 33 12 357 52 57 48 45 44 63
141 142 155 151 156 154 151 150 150 140 141 136 161 131 144 131 129 129 126 130 125 127 125 119 120 111 97 92 83 68 51 76 80 60 41 19 351 43 46 43 48 57 73
144 150 155 157 154 162 163 157 148 148 142 136 169 108 135 135 132 133 136 135 139 136 130 126 124 114 103 95 84 68 46 109 83 67 41 1 352 53 31 53 52 71 70
142 144 155 161 162 162 168 156 152 147 149 145 138 121 144 141 137 135 141 151 151 142 141 140 134 125 115 100 89 75 35 113 122 83 44 349 351 35 33 34 48 67 87
155 162 161 165 173 160 164 166 162 160 156 155 132 118 102 101 118 143 151 161 156 153 160 153 153 162 122 88 57 59 52 68 157 99 315 291 7 25 34 18 38 55 99
171 178 175 171 179 182 159 176 170 163 160 152 142 135 116 135 140 138 152 162 159 166 175 178 183 192 223 330 349 1 57 30 206 257 278 284 312 4 23 356 19 126 122
203 187 186 186 184 173 189 165 168 168 168 172 168 162 154 158 164 161 166 164 171 181 186 196 206 216 277 300 317 342 348 307 274 250 253 264 275 302 326 328 19 171 148
199 206 190 184 182 185 187 172 184 160 170 179 185 181 177 168 169 177 179 181 188 200 228 230 253 229 244 257 279 291 278 290 254 267 262 250 262 272 281 290 296 211 198
197 202 196 192 184 192 186 190 186 188 175 177 198 188 172 176 192 188 188 192 195 193 208 220 226 246 258 261 264 268 260 265 255 259 266 257 252 264 270 265 265 246 231
210 204 204 189 193 192 190 201 198 199 197 193 183 191 182 187 190 185 205 198 204 196 202 218 226 236 247 254 255 248 255 252 252 248 255 260 250 253 260 262 260 253 238
214 214 206 201 195 192 196 198 207 203 193 197 206 199 195 190 194 200 205 212 213 201 208 210 215 226 241 244 254 244 247 253 253 252 242 254 252 247 252 258 264 264 258
224 211 211 208 201 197 200 199 195 199 192 189 197 203 200 199 200 198 203 212 215 201 208 217 238 244 251 253 256 259 258 256 255 252 247 238 246 247 247 251 256 259 261
224 217 214 208 207 210 204 200 202 193 193 199 202 199 200 201 196 201 208 216 210 199 200 200 209 231 240 237 248 253 257 261 257 252 248 246 233 231 251 249 249 250 254
220 224 219 206 207 209 216 208 203 192 200 205 207 213 211 204 202 205 211 215 193 195 200 210 222 202 220 243 241 250 255 251 253 254 244 241 237 232 224 247 243 246 247
218 216 214 212 216 205 206 213 213 205 207 204 212 215 219 217 208 207 214 209 191 196 209 200 213 205 205 224 250 259 258 255 250 242 243 233 228 232 229 234 242 243 242
217 209 214 208 216 200 201 206 217 223 220 224 211 212 209 207 215 217 220 215 203 206 213 205 201 204 235 197 325 289 263 249 247 242 225 223 232 227 227 232 229 227 240
218 215 219 219 216 207 206 212 214 207 225 226 218 216 200 209 214 214 217 213 215 223 219 207 197 201 211 176 195 327 297 316 270 241 208 217 232 213 224 229 230 229 223
229 222 219 219 218 213 214 206 169 124 202 209 226 222 216 209 208 214 213 216 215 215 227 219 204 205 220 198 203 176 240 237 317 308 242 221 217 209 229 223 230 230 219
238 240 233 225 216 214 208 203 206 212 219 226 230 228 228 217 214 211 214 216 216 213 223 217 212 214 212 218 197 234 224 175 203 312 309 267 205 213 224 226 233 224 222
249 224 228 231 224 219 204 205 207 217 227 233 224 227 214 222 223 218 215 215 219 219 222 223 210 204 211 222 209 170 224 230 226 205 268 263 289 219 224 224 213 225 205
278 257 237 228 228 219 210 209 213 218 222 225 223 220 224 217 219 224 223 219 223 221 221 216 215 208 213 218 222 217 205 183 212 213 238 233 222 254 231 219 212 188 171